This is the latest recevied weather packets stored in our database for station/object SA7AHC. If no packets are shown the sender has not sent any weather packets the latest 10 day(s).
| Time | Temp. | Humidity | Pressure | Rain* | Wind** | Luminosity | Snow |
|---|---|---|---|---|---|---|---|
| 1777830335 | 13.33° C | 72% | 1010.3 hPa | 0 mm | - | 26 W/m² | - |
| 1777829738 | 13.33° C | 71% | 1010.6 hPa | 0 mm | - | 46 W/m² | - |
| 1777829132 | 13.33° C | 71% | 1010.6 hPa | 0 mm | - | 46 W/m² | - |
| 1777828536 | 13.89° C | 70% | 1010.5 hPa | 0 mm | - | 40 W/m² | - |
| 1777827945 | 13.89° C | 69% | 1010.6 hPa | 0 mm | - | 46 W/m² | - |
| 1777827339 | 13.89° C | 68% | 1010.6 hPa | 0 mm | - | 111 W/m² | - |
| 1777826734 | 13.89° C | 69% | 1010.5 hPa | 0 mm | - | 100 W/m² | - |
| 1777826134 | 13.89° C | 69% | 1010.7 hPa | 0 mm | - | 76 W/m² | - |
| 1777825529 | 13.89° C | 68% | 1010.7 hPa | 0 mm | - | 33 W/m² | - |
| 1777824930 | 14.44° C | 69% | 1010.5 hPa | 0 mm | - | 26 W/m² | - |
| 1777824325 | 14.44° C | 66% | 1010.6 hPa | 0 mm | - | 33 W/m² | - |
| 1777823722 | 15° C | 66% | 1010.7 hPa | 0 mm | - | 47 W/m² | - |
| 1777823122 | 15.56° C | 65% | 1010.6 hPa | 0 mm | - | 84 W/m² | - |
| 1777822528 | 15.56° C | 63% | 1010.8 hPa | 0 mm | - | 100 W/m² | - |
| 1777821927 | 15.56° C | 63% | 1010.8 hPa | 0 mm | - | 109 W/m² | - |
| 1777821320 | 16.11° C | 63% | 1010.8 hPa | 0 mm | - | 118 W/m² | - |
| 1777820721 | 16.11° C | 62% | 1010.9 hPa | 0 mm | - | 153 W/m² | - |
| 1777820113 | 16.67° C | 61% | 1010.9 hPa | 0 mm | - | 218 W/m² | - |
| 1777819511 | 17.22° C | 59% | 1010.9 hPa | 0 mm | - | 292 W/m² | - |
| 1777818911 | 17.78° C | 61% | 1010.9 hPa | 0 mm | - | 561 W/m² | - |
| 1777818315 | 17.78° C | 58% | 1010.9 hPa | 0 mm | - | 543 W/m² | - |
| 1777817708 | 17.22° C | 61% | 1011.1 hPa | 0 mm | - | 548 W/m² | - |
| 1777817107 | 17.22° C | 60% | 1011.1 hPa | 0 mm | - | 554 W/m² | - |
| 1777816504 | 17.22° C | 61% | 1011 hPa | 0 mm | - | 584 W/m² | - |
| 1777815908 | 17.22° C | 63% | 1011.3 hPa | 0 mm | - | 631 W/m² | - |
* Rain latest hour (hover to see other rain measurements)
** Current wind speed in m/s (hover to see current wind gust speed)